DAMPE (41173 NORAD) Tracking and Keplerian Element Data

This shows tracking and keplerian element data for the satellite.

Feedback or suggestion? Click here.




ElementValue
Catalog41173
NameDAMPE
Epoch Orbit50841
Epoch Day35.22616336
Epoch Year2025
RAAN34.2549
Inclination97.4446
Eccentricity0.0013792
Argument of Perigee47.5977
Mean Anonmoly312.6428
Mean Motion15.28754564
Decay Rate3.137E-05
L11 41173U 15078A 25035.22616336 .00003137 00000+0 11471-3 0 9991
L22 41173 97.4446 34.2549 0013792 47.5977 312.6428 15.28754564508411



Live tracking and technical data element details for DAMPE (NORAD 41173). DAMPE can be tracked NOW for your location showing map with azimuth and elevation plus other details from your city location.







IsCatalogInMostPopularTable: catalog: 41173, numindb: 630
Update: records affected: 1



GetName: 41173 DAMPE

Hit Count: updated at: Sat, 17 May 2025 09:19:06 GMT